Location: Janeiro
(34.9957°N, 76.7652°W)
Time: 09:10:43
(UTC+00:00)

SMAP - Pass Details

Date: 14 December 2019
Orbit: 681 x 684 km, 98.1° (Epoch: 21 January)

Event Time Altitude Azimuth Distance (km) Brightness Sun altitude
Rises 22:53:11 0° 175° (S) 3,030 6.6 -11.4°
Reaches altitude 10° 22:55:26 10° 179° (S) 2,119 5.9 -11.8°
Maximum altitude 23:00:00 59° 259° (W) 788 3.7 -12.7°
Drops below altitude 10° 23:04:37 10° 339° (NNW) 2,132 5.6 -13.6°
Sets 23:06:53 0° 344° (NNW) 3,052 6.4 -14.1°
